FW6987 Weather Reports


time (UTC)temp
F
wind
direction
speed
knots
gust
knots
rain 1hr
in
rain 24hr
in
rain mn
in
humidity
%
barometer
mb
20260902093108 62 0 0.0 0.9 0.00 0.27 0.01 95 1010.8
20260902091615 62 0 0.0 1.7 0.00 0.27 0.01 95 1010.6
20260902090109 62 0 0.0 0.0 0.00 0.27 0.01 95 1010.4
20260902084604 62 0 0.0 1.7 0.00 0.27 0.01 95 1010.3
20260902083059 62 0 0.0 0.9 0.00 0.27 0.01 95 1010.3
20260902081555 62 0 0.0 0.0 0.01 0.27 0.01 95 1010.2
20260902074831 62 0 0.0 0.0 0.01 0.27 0.01 95 1010.2
20260902073057 62 0 0.0 0.0 0.01 0.27 0.01 95 1010.1
20260902071554 62 0 0.0 0.9 0.00 0.26 0.00 95 1010.1
20260902070100 63 0 0.0 0.9 0.00 0.26 0.00 95 1010.4
20260902064600 63 312 0.0 0.0 0.00 0.27 0.00 95 1010.2
20260902063105 63 0 0.0 0.0 0.00 0.27 0.00 95 1010.1
20260902061618 63 0 0.0 0.0 0.00 0.27 0.00 95 1010.4
20260902060115 63 0 0.0 0.0 0.00 0.27 0.00 95 1010.1
20260902054600 63 0 0.0 0.0 0.00 0.29 0.00 95 1010.3
20260902053101 63 0 0.0 0.0 0.00 0.29 0.00 94 1010.0
20260902051613 64 0 0.0 0.0 0.00 0.29 0.00 95 1010.0
20260902050101 64 0 0.0 0.0 0.00 0.29 0.00 94 1010.1
20260902044610 64 0 0.0 0.0 0.00 0.52 0.00 94 1009.9
20260902043102 64 0 0.0 0.0 0.00 0.52 0.00 94 1009.7
20260902041601 65 0 0.0 0.0 0.00 0.52 0.00 94 1009.5
20260902040106 65 0 0.0 0.0 0.00 0.52 0.00 94 1009.5
20260902034600 65 0 0.0 1.7 0.00 0.52 0.52 94 1009.3
20260902033057 65 0 0.0 0.9 0.00 0.52 0.52 94 1009.1
20260902031604 66 0 0.0 1.7 0.00 0.52 0.52 94 1008.6
20260902030055 66 0 0.0 0.0 0.00 0.52 0.52 95 1008.4
20260902024600 66 0 0.0 0.0 0.00 0.52 0.52 94 1008.6
20260902023053 67 0 0.0 1.7 0.00 0.52 0.52 95 1008.3
20260902021630 67 0 0.0 0.9 0.00 0.52 0.52 95 1008.2
20260902020058 67 0 0.0 1.7 0.00 0.52 0.52 95 1008.4
20260902014559 68 0 0.0 0.9 0.00 0.52 0.52 95 1008.3
20260902013100 68 299 0.0 1.7 0.00 0.52 0.52 95 1008.2
20260902011603 68 0 0.0 0.9 0.00 0.52 0.52 95 1008.1
20260902010058 68 0 0.0 2.6 0.00 0.52 0.52 95 1007.9
20260902004559 69 0 0.0 0.9 0.00 0.52 0.52 95 1007.7
20260902003104 69 0 0.0 3.5 0.00 0.52 0.52 95 1007.1
20260902001600 69 0 0.0 2.6 0.00 0.52 0.52 95 1007.0
20260902000100 70 0 0.0 3.5 0.00 0.52 0.52 95 1006.8
20260901234557 70 303 0.9 5.2 0.00 0.52 0.52 95 1006.6
20260901233111 70 0 0.0 3.5 0.00 0.52 0.52 95 1006.6
20260901231556 70 354 1.7 6.1 0.00 0.52 0.52 95 1006.7
20260901230058 70 292 1.7 6.1 0.00 0.52 0.52 95 1006.8
20260901224559 70 339 2.6 6.1 0.00 0.52 0.52 94 1006.6
20260901223108 70 308 3.5 9.6 0.00 0.52 0.52 94 1006.0
20260901221600 71 311 3.5 7.8 0.00 0.52 0.52 94 1005.9
20260901214602 72 311 2.6 6.1 0.00 0.52 0.52 93 1006.0
20260901213058 72 324 3.5 8.7 0.00 0.52 0.52 92 1006.1
20260901211554 74 333 3.5 8.7 0.00 0.52 0.52 92 1005.6
20260901210108 74 345 0.9 7.0 0.00 0.52 0.52 93 1005.5
20260901204559 75 0 0.0 5.2 0.00 0.52 0.52 93 1005.2
20260901203111 75 0 0.0 0.0 0.00 0.52 0.52 93 1005.1
20260901201555 76 0 0.0 0.0 0.00 0.52 0.52 93 1005.1
20260901200058 76 0 0.0 1.7 0.00 0.52 0.52 94 1005.0
20260901194602 76 0 0.0 0.0 0.00 0.52 0.52 94 1004.9
20260901193105 76 0 0.0 0.0 0.00 0.52 0.52 95 1005.0
20260901191603 76 0 0.0 0.0 0.00 0.52 0.52 95 1004.8
20260901190114 75 0 0.0 0.0 0.00 0.52 0.52 95 1004.9
20260901184553 75 0 0.0 0.0 0.00 0.52 0.52 96 1005.0
20260901183056 75 0 0.0 0.0 0.00 0.52 0.52 96 1005.2
20260901181557 74 0 0.0 1.7 0.00 0.52 0.52 96 1005.3
20260901180100 74 0 0.0 0.9 0.00 0.52 0.52 96 1005.1
20260901174621 73 0 0.0 1.7 0.00 0.52 0.52 97 1005.3
20260901173102 72 218 0.0 1.7 0.00 0.52 0.52 97 1005.2
20260901171605 72 0 0.9 2.6 0.00 0.52 0.52 97 1005.1
20260901164601 71 0 0.0 0.0 0.00 0.52 0.52 97 1005.3
20260901163104 71 0 0.0 0.0 0.00 0.52 0.52 97 1005.7
20260901161613 71 0 0.0 0.0 0.00 0.52 0.52 97 1005.7
20260901154600 70 0 0.0 0.0 0.00 0.52 0.52 97 1006.2
20260901153103 70 0 0.0 0.0 0.01 0.52 0.52 97 1006.5
20260901151602 70 0 0.0 0.0 0.01 0.52 0.52 97 1006.8
20260901150123 69 0 0.0 0.9 0.01 0.52 0.52 97 1006.7
20260901144558 69 0 0.0 0.9 0.02 0.52 0.52 97 1006.6
20260901143136 68 0 0.0 1.7 0.07 0.52 0.51 96 1006.3
20260901141608 68 0 0.0 0.0 0.08 0.52 0.51 97 1006.5
20260901140100 68 0 0.0 0.0 0.10 0.52 0.51 96 1006.7
20260901134600 68 0 0.0 0.0 0.10 0.51 0.50 96 1006.5
20260901133110 68 0 0.0 0.0 0.09 0.45 0.44 96 1006.8
20260901131605 68 0 0.0 0.0 0.13 0.44 0.43 96 1006.8
20260901124606 68 0 0.0 0.0 0.12 0.41 0.40 96 1007.1
20260901123106 68 0 0.0 0.0 0.07 0.36 0.35 96 1007.0
20260901121600 67 0 0.0 0.0 0.02 0.31 0.30 96 1007.3
20260901120121 68 0 0.0 0.0 0.01 0.29 0.28 96 1007.2
20260901114603 67 0 0.0 0.0 0.01 0.29 0.28 96 1006.9
20260901113103 67 0 0.0 0.0 0.01 0.29 0.28 96 1006.8
20260901111603 67 0 0.0 0.0 0.02 0.29 0.28 96 1006.8
20260901110110 67 0 0.0 0.0 0.01 0.28 0.27 96 1006.7
20260901104604 67 0 0.0 0.0 0.01 0.28 0.27 96 1006.8
20260901103058 67 0 0.0 0.0 0.01 0.28 0.27 96 1006.6
20260901101607 67 0 0.0 0.0 0.00 0.27 0.26 96 1006.8
20260901100057 67 0 0.0 0.0 0.00 0.27 0.26 96 1006.9
20260901094559 67 0 0.0 0.0 0.00 0.27 0.26 96 1006.7